Temperature
9 9 8 8 8 8 8 8 8 8 8 8 8 8 7 7 7 7 6 6 5 5 5 4 4 3 3 3 3 3 2 2 1 2 2 2 2 2 2 2 1 1 1
8 8 8 8 8 8 8 8 8 8 7 7 7 7 7 7 6 6 6 5 5 5 4 4 3 3 3 3 3 2 2 2 1 1 2 1 1 1 1 1 1 1 1
7 7 7 7 7 7 7 7 7 7 7 7 6 6 6 6 6 5 5 5 4 4 4 3 3 3 3 3 2 2 2 2 1 1 1 1 1 1 1 1 1 1 1
7 7 7 7 7 7 7 7 7 6 6 6 6 6 6 5 5 5 4 4 4 3 3 3 3 3 2 2 2 2 2 1 1 1 1 1 1 1 1 1 1 1 1
6 6 6 6 6 6 6 6 6 6 6 5 5 5 5 5 4 4 4 3 3 3 3 3 3 2 2 2 2 1 1 1 1 0 0 0 0 0 -0 -0 -0 0 0
5 5 5 5 5 5 5 5 5 5 5 5 5 5 4 4 4 3 3 3 3 2 2 2 2 2 2 2 2 1 1 1 0 0 -0 -0 -0 -1 -1 -1 -1 -1 -1
5 5 5 5 5 5 5 5 5 5 4 4 4 4 4 3 3 3 2 2 2 2 2 2 2 2 1 1 1 1 1 0 0 -0 -0 -1 -1 -1 -1 -1 -1 -1 -1
4 4 4 4 4 4 4 4 4 4 4 4 3 3 3 3 2 2 2 2 2 2 1 1 1 1 1 1 1 0 0 0 -0 -0 -1 -1 -1 -1 -1 -2 -2 -2 -1
3 3 3 3 3 3 3 3 3 3 3 3 3 3 2 2 2 2 1 1 1 1 1 1 1 0 0 0 0 0 0 0 -0 -0 -1 -1 -1 -1 -2 -2 -2 -2 -2
2 2 2 2 2 2 2 2 2 2 2 2 2 2 2 2 1 1 1 1 1 1 1 0 0 0 0 -0 -0 -0 -0 -0 -0 -0 -0 -1 -1 -1 -1 -2 -2 -2 -3
2 1 1 1 1 1 2 1 1 1 1 1 1 1 1 1 1 1 0 0 -0 0 0 0 0 -0 -0 -0 -0 -1 -1 -1 -1 -1 -1 -1 -1 -1 -1 -2 -2 -2 -3
1 1 1 1 1 1 1 1 1 1 0 0 0 0 0 0 0 0 -0 -0 -0 -0 -0 -0 -0 -1 -1 -1 -1 -1 -1 -1 -1 -1 -1 -1 -1 -2 -2 -2 -2 -2 -3
0 0 0 0 0 0 0 0 -0 -0 -0 -0 -0 -0 -0 -0 -0 -0 -1 -1 -1 -1 -1 -1 -1 -1 -1 -1 -1 -1 -1 -1 -1 -1 -2 -2 -2 -2 -2 -2 -2 -2 -2
-1 -0 -0 -0 -0 -1 -1 -1 -1 -1 -1 -1 -1 -1 -1 -1 -1 -1 -1 -1 -1 -1 -1 -1 -1 -1 -1 -2 -1 -1 -1 -2 -2 -2 -2 -2 -2 -2 -2 -2 -2 -2 -2
-1 -1 -1 -1 -1 -1 -1 -2 -2 -2 -2 -2 -2 -2 -2 -2 -2 -2 -2 -2 -2 -2 -2 -2 -2 -2 -2 -2 -2 -2 -2 -2 -2 -2 -2 -2 -2 -2 -2 -2 -2 -3 -3
-2 -2 -2 -2 -2 -2 -2 -2 -2 -2 -2 -2 -2 -2 -2 -2 -2 -3 -2 -2 -2 -2 -2 -2 -2 -2 -2 -2 -2 -2 -2 -2 -2 -3 -3 -3 -3 -2 -2 -3 -3 -3 -3
-2 -2 -2 -2 -2 -2 -3 -3 -3 -3 -3 -3 -3 -3 -3 -3 -3 -3 -3 -3 -3 -3 -3 -3 -3 -3 -3 -3 -3 -3 -3 -3 -3 -3 -3 -3 -3 -3 -3 -3 -3 -3 -3
-3 -3 -3 -3 -3 -3 -3 -3 -3 -3 -3 -3 -3 -3 -4 -4 -3 -3 -3 -3 -3 -3 -3 -3 -3 -3 -3 -3 -3 -3 -3 -3 -3 -3 -3 -3 -3 -3 -3 -3 -4 -4 -4
-3 -3 -3 -3 -4 -4 -4 -4 -4 -4 -4 -4 -4 -4 -4 -4 -4 -4 -4 -4 -4 -3 -3 -3 -3 -3 -3 -3 -3 -3 -3 -3 -3 -3 -3 -3 -3 -3 -4 -4 -4 -4 -4
-4 -4 -4 -4 -4 -4 -4 -4 -5 -5 -4 -5 -5 -5 -5 -4 -4 -4 -4 -4 -4 -4 -4 -4 -4 -4 -4 -4 -3 -3 -3 -3 -3 -3 -4 -4 -4 -4 -4 -4 -4 -4 -4
-4 -4 -5 -5 -5 -5 -5 -5 -5 -5 -5 -5 -5 -5 -5 -5 -5 -5 -5 -5 -5 -4 -4 -4 -4 -4 -4 -4 -4 -4 -4 -4 -4 -4 -4 -4 -4 -4 -4 -4 -4 -4 -4
-5 -5 -5 -5 -5 -5 -6 -6 -6 -6 -6 -6 -6 -6 -6 -6 -5 -5 -5 -5 -5 -5 -5 -5 -4 -4 -4 -4 -4 -4 -4 -4 -4 -4 -4 -4 -4 -4 -4 -4 -4 -4 -4
-5 -6 -6 -6 -6 -6 -6 -6 -6 -6 -6 -6 -6 -6 -6 -6 -6 -6 -6 -6 -5 -5 -5 -5 -5 -5 -5 -5 -5 -5 -5 -5 -4 -5 -5 -4 -4 -4 -4 -4 -4 -4 -4
-6 -6 -6 -6 -6 -6 -6 -6 -6 -7 -7 -7 -7 -7 -7 -7 -7 -6 -6 -6 -6 -6 -5 -5 -5 -5 -5 -5 -5 -5 -5 -5 -5 -5 -5 -5 -4 -4 -4 -4 -4 -4 -4
-6 -6 -6 -7 -7 -7 -7 -7 -7 -7 -7 -7 -7 -7 -7 -7 -7 -7 -6 -6 -6 -6 -6 -5 -5 -5 -5 -5 -5 -5 -5 -5 -5 -5 -5 -4 -4 -4 -4 -4 -4 -4 -4
-7 -7 -7 -7 -7 -7 -7 -7 -7 -7 -7 -7 -7 -7 -7 -7 -7 -7 -7 -6 -6 -6 -6 -6 -6 -5 -5 -5 -5 -5 -5 -5 -5 -5 -4 -4 -4 -4 -4 -4 -4 -4 -4
Wind_Speed
6 6 6 6 6 6 5 6 5 4 5 5 4 4 3 3 2 3 2 2 2 1 1 1 2 2 2 2 2 3 3 4 7 8 6 7 8 10 13 14 15 14 15
5 5 5 5 6 6 5 5 5 5 5 5 4 4 3 3 3 3 3 3 3 2 2 2 3 2 3 3 3 4 4 4 6 10 9 7 8 9 10 11 12 13 13
5 5 5 5 5 6 5 5 5 5 5 4 4 4 3 3 3 3 4 4 4 3 3 3 3 3 4 4 4 4 4 5 5 7 9 8 7 8 9 10 10 9 12
5 5 5 5 5 5 5 5 5 5 5 4 4 3 3 3 3 3 3 3 3 3 3 3 3 4 4 4 4 4 4 5 5 6 8 8 7 7 7 8 10 8 9
5 5 4 4 4 4 4 4 4 4 4 4 3 3 2 2 3 3 3 3 3 2 2 3 4 5 5 5 4 4 4 4 5 6 7 7 7 8 8 7 9 10 9
5 5 4 4 4 4 4 4 4 3 3 3 3 3 2 2 3 2 1 2 2 2 3 3 4 4 6 7 8 8 7 6 6 6 6 8 9 8 7 8 8 9 8
5 4 4 4 4 4 4 4 4 3 3 3 3 3 2 3 2 3 2 1 2 3 2 3 4 5 6 5 7 8 8 9 8 6 7 8 8 8 8 9 8 8 8
4 4 4 4 4 4 4 4 3 3 3 2 2 2 2 2 2 2 1 1 2 2 3 3 4 4 6 6 5 5 6 6 8 6 6 7 7 7 7 7 8 8 8
4 3 3 4 4 4 4 3 2 3 2 2 2 1 1 2 2 1 1 1 1 2 3 3 3 4 8 8 5 5 7 7 8 9 10 10 12 12 10 6 6 7 8
3 2 3 3 4 4 3 2 2 2 2 2 1 1 0 1 2 1 1 1 1 2 2 3 5 6 8 7 4 4 6 7 7 7 8 9 9 9 10 5 5 6 6
2 3 3 3 3 3 3 2 3 3 3 2 1 1 1 2 2 2 2 1 1 2 2 3 4 8 8 8 6 4 6 6 5 5 6 6 6 5 6 6 5 4 5
3 4 4 3 3 3 3 3 3 3 2 1 1 1 1 2 3 3 3 3 3 2 3 3 4 8 8 7 6 7 8 6 4 4 5 6 6 6 6 7 8 7 7
4 4 3 4 3 3 3 3 2 2 1 0 0 0 1 2 2 4 4 4 4 3 2 5 6 6 6 5 7 8 6 4 4 4 5 6 6 6 6 6 7 7 8
4 3 3 3 3 3 2 2 1 1 0 0 0 1 2 2 2 2 2 3 4 3 3 4 5 4 4 5 6 5 4 4 4 4 5 5 5 5 6 6 6 7 6
3 3 3 3 3 2 2 1 1 0 1 1 1 2 1 2 4 5 3 2 3 3 3 2 2 3 3 4 4 4 4 5 5 5 5 6 6 6 6 6 5 5 5
3 3 2 2 2 2 2 2 4 3 3 3 3 2 2 4 5 5 5 5 5 5 3 2 2 3 3 4 4 5 4 5 5 5 5 6 6 6 7 6 5 5 5
3 2 2 2 2 1 1 1 2 3 5 5 5 5 4 4 5 5 5 4 4 4 2 2 3 3 4 4 4 4 5 5 5 5 5 6 6 6 6 6 6 5 6
2 2 2 1 1 1 1 1 0 1 2 3 4 6 6 5 5 5 4 3 3 3 2 2 3 3 4 4 4 4 5 5 5 5 5 5 6 6 6 6 6 6 6
2 2 2 1 1 1 1 1 1 1 1 2 2 3 5 5 5 5 4 2 2 2 3 3 3 3 4 4 4 4 5 5 5 5 5 6 6 6 6 6 6 8 7
1 2 2 1 1 1 1 1 0 1 1 2 2 2 3 3 3 3 3 2 2 3 3 3 4 4 4 4 4 4 5 5 5 5 5 6 6 6 6 7 6 6 5
1 1 2 1 1 1 0 0 0 1 1 2 2 3 4 2 2 2 2 2 2 3 3 3 4 4 4 4 4 5 5 5 5 5 5 6 6 6 6 6 5 5 5
1 1 1 1 1 0 0 0 0 1 1 2 2 3 5 3 2 2 3 3 3 3 3 3 4 4 4 4 5 5 5 6 5 5 6 6 6 6 6 5 4 4 4
1 1 1 1 0 0 1 1 1 1 1 2 2 2 2 2 2 2 3 3 3 4 5 4 4 4 6 6 6 5 5 6 6 6 6 6 6 5 5 4 5 5 4
1 1 1 0 0 0 0 1 1 1 1 2 2 2 2 2 3 3 3 3 4 4 5 5 5 6 8 8 7 8 8 9 9 7 6 6 5 4 4 4 4 4 4
1 1 1 1 0 0 0 1 1 2 2 2 2 2 3 2 3 3 3 3 4 4 5 6 6 7 8 9 9 9 10 11 9 8 6 4 4 3 3 3 3 4 4
1 1 1 1 1 1 1 1 2 2 2 3 3 3 3 3 3 3 3 3 4 4 5 6 7 9 10 9 9 10 11 10 9 7 5 3 2 3 3 3 3 3 3
Wind_Direction
166 164 165 169 166 163 169 172 169 162 157 161 164 161 163 161 159 164 181 176 186 227 243 245 268 280 286 292 295 290 281 275 285 297 297 305 308 314 320 322 321 319 319
163 159 160 163 160 162 170 173 165 164 163 162 159 165 173 175 181 186 197 200 201 217 240 255 275 287 284 288 285 284 284 281 286 300 307 311 308 312 314 316 321 322 318
149 148 150 155 160 165 171 172 166 164 161 159 159 174 184 190 198 207 206 209 213 224 234 245 263 271 278 287 284 284 288 297 294 299 305 308 309 314 318 316 317 318 320
138 143 149 158 164 166 165 162 163 163 163 167 173 179 184 192 204 217 213 216 225 236 244 249 254 255 261 273 281 285 297 303 306 305 306 310 311 313 319 322 324 325 319
134 137 146 150 147 145 148 152 152 155 161 163 167 174 180 191 210 214 212 220 227 247 268 271 271 280 287 289 297 297 299 301 308 309 309 314 317 325 324 319 318 320 312
131 135 135 133 131 135 142 145 146 149 152 154 168 176 187 211 228 223 245 219 231 254 279 288 291 285 296 304 307 306 307 306 305 304 305 310 310 312 313 315 317 324 318
119 123 125 127 126 125 132 133 139 151 153 163 174 178 204 232 226 227 252 223 243 249 263 284 299 305 309 294 302 311 309 308 305 299 296 299 303 307 311 314 316 314 305
110 113 119 121 121 117 117 127 138 148 158 169 177 189 209 237 238 236 257 213 253 256 260 263 277 294 303 307 309 309 304 303 300 298 288 293 298 304 303 302 301 304 297
109 111 115 122 122 121 123 128 141 142 143 152 169 168 192 257 260 254 327 219 267 282 284 287 289 286 306 321 320 310 312 312 313 313 312 311 314 318 322 322 321 322 317
106 116 112 117 124 128 134 131 126 130 127 121 99 86 351 284 313 314 332 220 268 290 298 298 308 312 313 321 314 307 309 312 321 326 324 321 320 318 323 316 306 311 314
88 95 96 98 112 117 113 115 116 108 100 97 85 35 5 345 341 325 323 301 271 288 296 303 308 319 321 321 320 304 307 321 321 320 319 319 321 320 318 315 304 297 299
91 92 90 87 90 94 99 97 101 103 100 86 77 25 355 330 337 324 328 338 337 306 296 298 307 322 326 327 326 325 331 337 330 326 324 322 323 320 317 316 311 300 286
91 90 90 85 80 87 100 102 100 97 110 117 95 347 327 322 320 330 332 340 342 333 310 320 326 331 335 333 335 340 341 336 332 328 320 316 315 312 315 320 319 316 310
96 90 87 89 78 66 67 87 108 124 127 32 342 312 316 317 318 321 325 327 335 339 337 338 343 346 349 342 342 342 343 337 331 316 315 314 317 322 324 326 324 329 329
97 90 77 78 90 80 59 55 49 248 231 220 231 244 266 290 311 330 339 330 334 337 354 357 349 346 347 340 338 341 342 341 336 330 324 323 324 327 326 327 326 330 331
99 89 80 82 82 83 75 39 27 26 22 13 358 341 314 319 325 331 338 344 348 358 12 345 334 334 329 328 330 333 333 334 331 329 326 327 326 325 325 327 329 332 332
108 99 85 75 75 76 70 61 25 16 25 24 17 2 353 348 349 346 346 356 7 15 16 342 328 324 325 325 325 325 325 326 326 326 326 326 326 325 326 329 331 332 328
102 98 90 83 76 68 66 52 24 358 351 349 354 359 2 3 3 2 5 18 5 3 351 333 324 322 322 322 322 325 326 330 331 329 327 327 327 327 328 326 326 324 324
106 108 101 95 82 72 61 59 46 357 337 335 340 348 1 360 2 6 15 17 348 338 339 335 326 319 318 318 320 322 324 323 324 326 326 326 326 325 323 322 323 325 326
107 101 90 96 95 75 60 60 32 356 348 342 337 336 347 360 360 359 2 359 348 334 331 326 323 318 315 316 319 321 321 320 322 324 324 323 323 321 320 321 323 326 328
111 108 77 74 82 82 74 46 340 326 325 326 325 333 347 346 335 329 333 334 328 322 319 318 317 318 320 321 318 315 314 314 316 319 320 319 320 321 321 322 324 326 330
123 120 109 106 85 48 29 357 321 312 310 311 315 323 338 344 331 319 317 319 318 313 309 310 312 311 310 309 310 311 312 313 315 316 317 316 317 320 325 327 332 334 337
127 120 98 81 88 13 357 352 341 312 308 307 310 317 324 326 324 318 314 315 315 314 316 315 312 315 316 312 307 302 300 300 304 307 310 312 316 320 324 329 334 336 339
141 141 137 127 84 28 333 327 325 317 309 308 308 306 306 305 305 308 309 308 310 311 312 313 309 309 313 316 313 308 303 304 305 302 300 304 312 321 328 332 334 335 338
139 149 161 178 204 244 291 304 306 308 306 304 302 303 305 304 303 303 303 304 306 308 311 311 310 310 313 315 317 315 316 317 318 318 311 308 312 321 327 333 341 343 349
159 168 184 197 209 230 253 275 288 295 296 297 298 296 296 297 297 297 301 306 310 311 312 311 311 314 314 314 316 320 322 325 328 333 335 325 327 335 339 347 349 358 5
Height
1498 1501 1504 1507 1510 1512 1514 1516 1518 1519 1520 1521 1522 1522 1523 1523 1523 1523 1523 1522 1522 1521 1520 1519 1518 1517 1515 1513 1511 1509 1506 1503 1498 1492 1490 1486 1481 1477 1472 1468 1463 1458 1453
1494 1498 1501 1503 1506 1508 1510 1512 1514 1515 1517 1518 1518 1519 1519 1520 1520 1520 1519 1519 1518 1517 1517 1516 1514 1513 1512 1510 1508 1505 1502 1499 1495 1489 1485 1482 1478 1473 1469 1464 1459 1454 1449
1491 1494 1497 1500 1502 1504 1507 1509 1510 1512 1513 1514 1515 1515 1516 1516 1516 1516 1516 1515 1515 1514 1513 1512 1511 1510 1508 1506 1504 1502 1499 1496 1492 1487 1482 1478 1474 1470 1465 1460 1455 1450 1446
1488 1491 1494 1496 1498 1501 1503 1505 1507 1508 1509 1510 1511 1512 1512 1512 1513 1513 1512 1512 1511 1511 1510 1509 1507 1506 1504 1503 1500 1498 1495 1492 1488 1484 1479 1475 1471 1466 1462 1456 1450 1446 1442
1486 1488 1491 1493 1495 1497 1499 1501 1503 1505 1506 1507 1508 1508 1509 1509 1509 1509 1509 1508 1507 1507 1506 1505 1504 1503 1501 1500 1497 1494 1491 1488 1484 1480 1476 1471 1467 1463 1459 1454 1449 1443 1439
1484 1486 1488 1490 1492 1494 1496 1498 1500 1501 1502 1503 1504 1504 1505 1505 1505 1505 1506 1505 1504 1503 1502 1501 1500 1499 1497 1496 1494 1491 1489 1485 1481 1478 1473 1469 1465 1461 1457 1452 1447 1441 1435
1482 1484 1486 1487 1489 1491 1493 1495 1496 1498 1499 1499 1500 1500 1501 1501 1502 1502 1502 1501 1501 1500 1498 1497 1496 1495 1493 1491 1489 1487 1485 1482 1479 1476 1471 1467 1463 1459 1454 1449 1445 1440 1435
1481 1482 1484 1485 1487 1488 1490 1492 1493 1494 1495 1496 1496 1497 1497 1498 1498 1498 1498 1498 1497 1496 1495 1494 1493 1491 1489 1487 1485 1483 1480 1478 1475 1472 1468 1465 1461 1457 1453 1448 1443 1438 1433
1479 1481 1482 1483 1485 1486 1488 1489 1490 1491 1492 1493 1493 1494 1494 1494 1495 1495 1495 1494 1493 1492 1491 1490 1489 1487 1486 1484 1482 1479 1476 1474 1471 1468 1465 1462 1458 1454 1450 1445 1440 1435 1429
1478 1480 1481 1482 1483 1484 1485 1487 1488 1489 1489 1490 1490 1491 1491 1491 1491 1491 1491 1490 1489 1488 1488 1487 1485 1484 1482 1481 1478 1475 1472 1470 1467 1464 1461 1458 1455 1451 1447 1443 1439 1434 1429
1477 1479 1480 1481 1482 1483 1484 1484 1485 1486 1487 1488 1488 1488 1488 1489 1489 1488 1488 1487 1486 1485 1484 1483 1481 1480 1479 1477 1475 1473 1470 1467 1464 1461 1458 1455 1451 1448 1444 1441 1437 1433 1428
1477 1478 1479 1480 1480 1481 1482 1483 1483 1484 1485 1485 1485 1485 1486 1486 1486 1485 1485 1485 1484 1482 1481 1480 1478 1477 1476 1474 1472 1470 1467 1464 1461 1458 1455 1452 1448 1445 1442 1438 1435 1431 1428
1476 1477 1478 1479 1479 1480 1480 1481 1482 1482 1483 1483 1483 1483 1483 1483 1483 1483 1482 1482 1481 1480 1478 1477 1476 1474 1473 1470 1469 1466 1464 1461 1458 1455 1452 1449 1446 1443 1439 1436 1432 1429 1426
1475 1476 1477 1477 1478 1479 1479 1480 1480 1480 1481 1481 1481 1481 1481 1481 1480 1480 1479 1479 1478 1477 1476 1474 1473 1472 1470 1468 1466 1463 1461 1458 1456 1453 1450 1447 1444 1441 1437 1434 1430 1427 1423
1474 1475 1476 1476 1477 1478 1478 1478 1479 1479 1479 1479 1479 1479 1479 1478 1478 1478 1477 1476 1475 1474 1473 1472 1470 1468 1466 1465 1463 1461 1458 1456 1454 1451 1448 1445 1442 1439 1436 1432 1429 1426 1422
1473 1474 1474 1475 1476 1476 1477 1477 1477 1477 1477 1477 1477 1477 1477 1477 1476 1475 1475 1474 1473 1472 1471 1469 1468 1466 1464 1462 1460 1458 1456 1454 1451 1449 1446 1444 1440 1437 1434 1431 1428 1425 1421
1472 1473 1473 1474 1474 1474 1475 1475 1475 1476 1475 1475 1475 1475 1474 1474 1474 1473 1472 1472 1471 1470 1468 1467 1466 1464 1462 1460 1459 1456 1454 1452 1450 1447 1445 1442 1439 1436 1433 1430 1427 1424 1421
1471 1471 1472 1472 1473 1473 1473 1474 1474 1473 1473 1473 1473 1472 1472 1471 1471 1470 1470 1469 1468 1467 1466 1465 1464 1462 1460 1459 1457 1455 1452 1450 1448 1445 1443 1441 1438 1435 1432 1429 1426 1423 1420
1469 1470 1470 1471 1471 1472 1472 1472 1472 1472 1471 1471 1470 1470 1470 1469 1469 1468 1467 1467 1465 1465 1464 1463 1462 1460 1458 1457 1455 1453 1451 1448 1446 1444 1441 1439 1437 1434 1431 1429 1426 1423 1421
1468 1468 1469 1469 1470 1470 1470 1470 1470 1470 1470 1469 1468 1468 1467 1467 1466 1465 1465 1464 1464 1463 1462 1461 1460 1458 1456 1455 1453 1451 1449 1446 1444 1442 1440 1438 1435 1433 1430 1428 1425 1422 1420
1466 1467 1467 1468 1468 1469 1469 1469 1468 1468 1468 1467 1467 1467 1466 1465 1464 1464 1463 1463 1462 1461 1460 1459 1457 1456 1454 1452 1451 1449 1447 1445 1443 1440 1438 1436 1434 1432 1429 1427 1425 1422 1420
1465 1466 1466 1467 1467 1467 1467 1467 1467 1466 1466 1465 1465 1465 1464 1464 1463 1462 1461 1460 1460 1459 1458 1457 1455 1454 1452 1450 1449 1447 1445 1443 1441 1439 1437 1435 1433 1431 1429 1426 1424 1422 1420
1464 1464 1465 1465 1465 1465 1465 1465 1465 1464 1464 1463 1463 1462 1462 1461 1461 1460 1459 1458 1457 1456 1455 1454 1453 1451 1450 1448 1447 1445 1443 1441 1440 1438 1436 1434 1432 1430 1428 1426 1424 1422 1420
1463 1463 1463 1464 1464 1464 1463 1463 1463 1462 1462 1461 1461 1460 1460 1459 1458 1458 1457 1456 1455 1454 1453 1452 1450 1449 1448 1446 1444 1443 1441 1440 1438 1437 1435 1434 1432 1430 1428 1426 1425 1423 1421
1461 1461 1461 1462 1462 1461 1461 1461 1460 1460 1460 1459 1458 1458 1457 1457 1456 1455 1454 1453 1452 1451 1451 1449 1448 1447 1445 1444 1442 1441 1440 1438 1437 1436 1434 1433 1432 1430 1428 1427 1425 1424 1422
1459 1459 1459 1460 1459 1459 1459 1458 1458 1458 1457 1457 1456 1456 1455 1454 1453 1453 1452 1451 1450 1449 1448 1447 1446 1444 1443 1441 1440 1439 1438 1437 1435 1434 1433 1432 1431 1430 1428 1427 1426 1424 1423